TimePDT,TemperatureF,Dew PointF,Humidity,Sea Level PressureIn,VisibilityMPH,Wind Direction,Wind SpeedMPH,Gust SpeedMPH,PrecipitationIn,Events,Conditions,WindDirDegrees,DateUTC
12:53 AM,45.0,30.9,58,30.15,10.0,South,3.5,-,N/A,,Clear,180,2012-09-17 07:53:00
1:53 AM,44.1,28.9,55,30.16,10.0,SSW,3.5,-,N/A,,Clear,200,2012-09-17 08:53:00
3:53 AM,39.9,30.0,68,30.16,10.0,Calm,Calm,-,N/A,,Clear,0,2012-09-17 10:53:00
4:53 AM,37.4,30.2,75,30.30,10.0,South,3.5,-,N/A,,Clear,180,2012-09-17 11:53:00
5:53 AM,37.9,28.9,70,30.18,10.0,Calm,Calm,-,N/A,,Clear,0,2012-09-17 12:53:00
6:53 AM,35.6,28.4,75,30.30,10.0,South,3.5,-,N/A,,Clear,190,2012-09-17 13:53:00
7:53 AM,39.9,30.9,70,30.21,10.0,South,3.5,-,N/A,,Clear,190,2012-09-17 14:53:00
8:53 AM,54.0,33.1,45,30.19,10.0,SSE,3.5,-,N/A,,Clear,160,2012-09-17 15:53:00
9:53 AM,64.9,32.0,29,30.16,10.0,Variable,3.5,-,N/A,,Clear,0,2012-09-17 16:53:00
10:53 AM,68.0,32.0,26,30.15,10.0,NNE,6.9,-,N/A,,Clear,20,2012-09-17 17:53:00
11:53 AM,72.0,34.0,25,30.12,10.0,Calm,Calm,-,N/A,,Clear,0,2012-09-17 18:53:00
12:53 PM,75.9,27.0,16,30.10,10.0,Variable,6.9,-,N/A,,Clear,0,2012-09-17 19:53:00
1:53 PM,77.0,23.0,13,30.07,10.0,ESE,10.4,16.1,N/A,,Clear,120,2012-09-17 20:53:00
2:53 PM,77.0,21.9,13,30.06,10.0,NE,9.2,17.3,N/A,,Clear,50,2012-09-17 21:53:00
3:53 PM,77.0,21.9,13,30.06,10.0,ENE,10.4,21.9,N/A,,Clear,60,2012-09-17 22:53:00
4:53 PM,75.9,27.0,16,30.06,10.0,Variable,4.6,19.6,N/A,,Clear,0,2012-09-17 23:53:00
5:53 PM,72.0,27.0,19,30.08,10.0,Variable,3.5,-,N/A,,Clear,0,2012-09-18 00:53:00
6:53 PM,66.9,32.0,27,30.11,10.0,Variable,3.5,-,N/A,,Clear,0,2012-09-18 01:53:00
7:53 PM,62.1,33.1,34,30.14,10.0,Calm,Calm,-,N/A,,Clear,0,2012-09-18 02:53:00
8:53 PM,55.0,33.1,43,30.13,10.0,Calm,Calm,-,N/A,,Clear,0,2012-09-18 03:53:00
9:53 PM,52.0,34.0,50,30.12,10.0,Calm,Calm,-,N/A,,Clear,0,2012-09-18 04:53:00
10:53 PM,48.9,32.0,52,30.13,10.0,Calm,Calm,-,N/A,,Clear,0,2012-09-18 05:53:00
11:53 PM,46.9,32.0,56,30.13,10.0,Calm,Calm,-,N/A,,Clear,0,2012-09-18 06:53:00